Regional Weather Roundup
Issued by NWS

Home | Current Version | Previous Version | Text Only | Print | Product List | Glossary On
Versions: 1 2 3 4 5 6 7 8 9 10 11 12 13 14 15 16 17 18 19 20 21 22 23 24 25 26 27 28 29 30 31 32 33 34 35 36 37 38 39 40 41 42 43 44 45 46 47 48 49 50
026
ASUS43 KIND 261109
RWRIN

WEATHER ROUNDUP FOR INDIANA
NATIONAL WEATHER SERVICE INDIANAPOLIS IN
700 AM EDT TUE SEP 26 2017

NOTE: "FAIR" INDICATES FEW OR NO CLOUDS BELOW 12,000 FEET WITH NO
SIGNIFICANT WEATHER AND/OR OBSTRUCTIONS TO VISIBILITY.

* - STATION DOES NOT REPORT WEATHER SUCH AS PRECIPITATION OR FOG.

+ - STATION NOT QUALITY CONTROLLED BY THE NATIONAL WEATHER SERVICE.
    USE DATA WITH CAUTION...ESPECIALLY DEWPOINT AND RELATIVE
    HUMIDITY OBSERVATIONS.

INZ001>003-010>013-019-020-261200-
NORTHWEST INDIANA

CITY           SKY/WX    TMP DP  RH WIND       PRES   REMARKS
GARY /AIRPORT/ CLEAR     68  61  77 VRB5      29.95S
KNOX *+        CLEAR     61  59  94 CALM      29.97S
LA PORTE +     CLEAR     60  58  94 CALM      29.98R
MICHIGAN CITY+ CLEAR     64  61  88 S3        29.96S
MONTICELLO +   CLEAR     69  64  86 S3        29.97S
RENSSELAER +   CLEAR     66  59  77 SW5       29.97R
VALPARAISO     CLEAR     65  60  84 SW3       29.97S

$$

LMZ046-743>745-261200-
SOUTHERN LAKE MICHIGAN

STATION/POSITION TIME  TEMP    WIND        PRES    WAVE
                       AIR SEA DIR/SP/G            HT
                 (UTC) (F)     (DEG/KT/KT) (MB)    (FT)
BURNS HARBOR     1040   72     180/  8/ 12 1014.6R
MICHIGAN CITY    1040   74     170/ 11/ 13   N/A
5NW MICH CITY    1100   72 71  210/  8/ 10   N/A     1

$$

INZ004-005-014>016-021>024-261200-
NORTH CENTRAL INDIANA

CITY           SKY/WX    TMP DP  RH WIND       PRES   REMARKS
ELKHART        CLEAR     63  59  88 CALM      29.98
GOSHEN         CLEAR     64  59  83 SE3       29.98S
LOGANSPORT +   CLEAR     61  59  94 SE5       29.99S
PERU/GRISSOM   CLEAR     65  62  89 S5        29.98S
SOUTH BEND     CLEAR     64  61  90 SE5       29.98R
WARSAW +       CLEAR     61  61 100 CALM      29.99S

$$

INZ006>009-017-018-025>027-261200-
NORTHEAST INDIANA

CITY           SKY/WX    TMP DP  RH WIND       PRES   REMARKS
AUBURN +       CLEAR     61  59  94 CALM      30.01R FOG
FORT WAYNE     CLEAR     63  59  87 CALM      30.01R
HUNTINGTON +   CLEAR     64  63  96 CALM      30.00S
KENDALLVILLE + CLEAR     64  61  90 CALM      30.01R

$$

INZ028-029-035-036-043>045-051>053-261200-
WEST CENTRAL INDIANA

CITY           SKY/WX    TMP DP  RH WIND       PRES   REMARKS
CRAWFORDSVL +  CLEAR     63  63 100 SE3       30.00
GREENCASTLE +  CLEAR     63  61  94 CALM      30.01S
LAFAYETTE      CLEAR     65  64  97 CALM      29.98R
TERRE HAUTE    CLEAR     64  61  90 CALM      29.99R

$$

INZ030>032-037>040-046>048-054>057-064-065-261200-
CENTRAL INDIANA

CITY           SKY/WX    TMP DP  RH WIND       PRES   REMARKS
CP ATTERBURY + CLEAR     61  59  94 CALM      30.01S
COLUMBUS       CLEAR     63  61  94 CALM      30.01
FISHERS *+     CLEAR     63  63 100 CALM      30.01R
FRANKFORT +    CLOUDY    65  63  93 CALM      30.01S
GREENWOOD *+   CLEAR     66  64  91 CALM      30.02R
INDIANAPOLIS   CLEAR     68  63  84 SE5       30.01R
-EAGLE CREEK   CLEAR     66  63  90 CALM      30.00R
KOKOMO +       CLEAR     64  61  90 S5        30.01R
MARION +       CLEAR     63  61  94 CALM      30.01R
MT COMFORT *+  CLEAR     61  59  94 CALM      30.01S
SHELBYVILLE    CLEAR     64  60  87 CALM      30.01R
ZIONSVILLE +   CLEAR     61  60  97 CALM      30.02R

$$

INZ033-034-041-042-049-050-058-059-261200-
EAST CENTRAL INDIANA

CITY           SKY/WX    TMP DP  RH WIND       PRES   REMARKS
MUNCIE         CLEAR     70  62  76 S3        30.02R
RICHMOND +     CLEAR     59  59 100 CALM      30.04S

$$

INZ060-061-067>069-081>083-085>088-261200-
SOUTHWEST INDIANA

CITY           SKY/WX    TMP DP  RH WIND       PRES   REMARKS
EVANSVILLE     CLEAR     67  65  93 CALM      29.99R
HUNTINGBURG +  CLEAR     64  63  96 CALM      30.00R FOG
WASHINGTON +   CLEAR     62  60  94 CALM      29.99R FOG

$$

INZ062-063-066-070>080-084-089>092-261200-
SOUTH CENTRAL AND SOUTHEAST INDIANA

CITY           SKY/WX    TMP DP  RH WIND       PRES   REMARKS
BEDFORD +      CLEAR     64  63  94 CALM      30.00R
BLOOMINGTON    CLEAR     63  59  87 CALM      30.01R
MADISON *+     CLEAR     63  61  94 CALM      30.04R
NORTH VERNON + CLEAR     59  59 100 CALM      30.02R FOG
SEYMOUR +      FOG       63  63 100 CALM      30.01R VSB 1/2

$$





USA.gov is the U.S. government's official web portal to all federal, state and local government web resources and services.